USA 115 (MILSTAR-1 2)   
1 23712U 95060A   19266.34944036 -.00000203  00000-0  00000+0 0  9997
2 23712  13.0679  22.1737 0001607 156.8759 218.6601  1.00274191  6993
TITAN 401 CENTAUR R/B   
1 23713U 95060B   19266.33675793 -.00000164  00000-0  00000+0 0  9994
2 23713  13.9126  18.4654 0030669 158.7693 201.3891  1.00603249   673